TimeEDT,TemperatureF,Dew PointF,Humidity,Sea Level PressureIn,VisibilityMPH,Wind Direction,Wind SpeedMPH,Gust SpeedMPH,PrecipitationIn,Events,Conditions,WindDirDegrees,DateUTC
12:56 AM,72.0,68.0,87,30.15,10.0,NW,8.1,-,N/A,,Clear,310,2012-10-05 04:56:00
1:56 AM,72.0,66.9,84,30.14,10.0,NW,9.2,-,N/A,,Clear,310,2012-10-05 05:56:00
2:56 AM,71.1,66.9,87,30.14,10.0,NNW,9.2,-,N/A,,Clear,330,2012-10-05 06:56:00
3:56 AM,70.0,66.9,90,30.13,10.0,NW,6.9,-,N/A,,Clear,320,2012-10-05 07:56:00
4:56 AM,70.0,66.9,90,30.13,10.0,NW,6.9,-,N/A,,Clear,320,2012-10-05 08:56:00
5:56 AM,69.1,66.9,93,30.14,10.0,NNW,5.8,-,N/A,,Clear,330,2012-10-05 09:56:00
6:56 AM,68.0,66.0,93,30.14,10.0,NNW,5.8,-,N/A,,Clear,340,2012-10-05 10:56:00
7:56 AM,69.1,66.0,90,30.14,9.0,NNW,5.8,-,N/A,,Clear,330,2012-10-05 11:56:00
8:56 AM,71.1,64.0,78,30.14,10.0,NNW,5.8,-,N/A,,Clear,340,2012-10-05 12:56:00
9:56 AM,73.9,64.0,71,30.14,10.0,North,5.8,-,N/A,,Clear,360,2012-10-05 13:56:00
10:56 AM,77.0,64.0,64,30.13,10.0,North,5.8,-,N/A,,Clear,10,2012-10-05 14:56:00
11:56 AM,79.0,64.0,60,30.12,10.0,NW,4.6,-,N/A,,Clear,320,2012-10-05 15:56:00
12:56 PM,79.0,66.0,64,30.10,10.0,North,4.6,-,N/A,,Clear,350,2012-10-05 16:56:00
1:56 PM,78.1,66.9,68,30.09,10.0,East,6.9,-,N/A,,Scattered Clouds,100,2012-10-05 17:56:00
2:56 PM,77.0,64.9,66,30.08,10.0,SE,5.8,-,N/A,,Mostly Cloudy,130,2012-10-05 18:56:00
3:56 PM,78.1,61.0,56,30.06,10.0,East,5.8,-,N/A,,Scattered Clouds,100,2012-10-05 19:56:00
4:56 PM,78.1,61.0,56,30.05,10.0,SE,4.6,-,N/A,,Clear,140,2012-10-05 20:56:00
5:56 PM,75.0,62.1,64,30.05,10.0,SE,3.5,-,N/A,,Clear,130,2012-10-05 21:56:00
6:56 PM,72.0,64.0,76,30.04,10.0,SSE,3.5,-,N/A,,Clear,150,2012-10-05 22:56:00
7:56 PM,70.0,62.1,76,30.04,10.0,SE,3.5,-,N/A,,Clear,130,2012-10-05 23:56:00
8:56 PM,66.9,63.0,87,30.05,10.0,Calm,Calm,-,N/A,,Clear,0,2012-10-06 00:56:00
9:56 PM,66.0,63.0,90,30.05,10.0,Calm,Calm,-,N/A,,Clear,0,2012-10-06 01:56:00
10:56 PM,64.9,63.0,93,30.04,10.0,Calm,Calm,-,N/A,,Clear,0,2012-10-06 02:56:00
11:56 PM,66.0,64.0,93,30.04,9.0,Calm,Calm,-,N/A,,Clear,0,2012-10-06 03:56:00